User: anonymous   Login
Location: Kopernik Observatory
(42.0014°N, 76.0372°W)
Time: 18:09:48
(UTC-04:00)
Language:

CENTAUR R/B - Orbit

View from above orbital plane
View from above orbital plane
View from above satellite
View from above satellite

Ground track
Ground track

The orbit data is extracted from the following two-line orbital elements,

1 26906U 01040B   15143.94685328 0.00000050  00000-0  67106-4 0    09
2 26906  63.4635 108.2610 0289500 344.1150  15.8850 13.43956154    00
Epoch (UTC): 23 May 2015 22:43:28
Eccentricity: 0.0289500
inclination: 63.4635°
perigee height: 878 km
apogee height: 1311 km
right ascension of ascending node: 108.2610°
argument of perigee: 344.1150°
revolutions per day: 13.43956154
mean anomaly at epoch: 15.8850°
orbit number at epoch: 0

The dashed part of the orbit path shows where the satellite is in the earth's shadow,  

DLR